遥感四十三号01组-E (YAOGAN-43 O1E)

导读

YAOGAN-43 O1E(遥感四十三号01组卫星)是中国于北京时间2024年8月16日15时35分,在西昌卫星发射中心通过长征四号乙运载火箭发射的低轨试验卫星,本次发射任务圆满成功,卫星顺利进入预定轨道。 该卫星主要用于开展低轨星座系统新技术试验,此次发射也标志着长征系列运载火箭完成第531次飞行任务,对我国低轨星座技术发展具有重要验证意义。

基本信息
目录编号:
60462
目录名称:
YAOGAN-43 O1E
国际标识:
2024-148E
轨道中心:
EARTH
卫星名称:
遥感四十三号01组-E (YAOGAN-43 O1E)
卫星全名:
遥感四十三号01组-E (YAOGAN-43 O1E)
卫星状态:
在轨 (已飞行665 天)
发射日期:
2024-08-16 UTC
国别 :
中国 (CN)
星等 :
--
轨道信息
数据来源 国际轨道数据
星历时间: 2026-06-12T15:10:01+0800
12小时前
查看轨道信息
半长轴: 6874.882km
偏心率: 0.0005831
轨道倾角: 34.991°
近地点辐角 188.623°
升交点赤经 190.934°
平近点角 171.439°
近地点: 492.736km
远地点: 500.754km
周期: 94.549分钟
每日圈数: 15.230177
详细信息
运营商:
中国空间技术研究院
运营商所在国:
中国
制造商(研发单位):
中国空间技术研究院
制造商所在国:
中国
使用方式:
暂无
卫星简介
遥感四十三号卫星组分别由航天科技集团五院和八院等抓总研制,主要用于开展低轨星座系统新技术试验。
2D轨道图
3D轨道图
轨道高度分析图
轨道倾角分析图
轨道综合分析图
查看轨道综合分析图